Weather in Primorye

Kazakhstan     46°32′44″N   49°12′18″E
temp.,
°C
wind,
m/s
gust,
m/s
humid.,
%
clouds,
%
prec.,
mm/h
press.,
hPa
HPBL,
m
9 march, tue
tue923:00+1ssw61070100 0.0 1019411
02:00+1ssw61082100 0.0 1018406
05:000sw5992100 0.0 1016323
08:00−1sw5109575 0.0 1016300
11:00+2sw687681 0.0 1016473
14:00+5sw686074 0.1 10151162
17:00+6wsw7105787 0.1 10131281
20:00+5wsw5963100 0.1 1013776
10 march, wed
wed1023:00+3wnw6107192 0.1 1015905
02:00+1w5107370 0.0 1015404
05:00−1wsw487246 0.0 1016210
08:00−1wsw5117018 0.0 1017460
11:00−1nw896746 0.0 10191037
14:000nw9113866 0.0 10211600
17:000nw8103632 0.0 10211780
20:00−2nw68410 0.0 1022893
11 march, thu
thu1123:00−4nw684329 0.0 1024998
02:00−5nnw5743100 0.0 1024862
05:00−5nnw5645100 0.0 1024782
08:00−7n454291 0.0 1025552
11:00−6n553295 0.0 1026746
14:00−4nne4430100 0.0 10251020
17:00−4nne5430100 0.0 10251167
20:00−5nne5531100 0.0 10241077
12 march, fri
fri1223:00−6ne6733100 0.0 1026898
02:00−7ne6834100 0.0 1026921
05:00−8ene7945100 0.0 1026958
08:00−9ene7851100 0.0 1028799
11:00−9ene7844100 0.0 1029782
14:00−6ne7727100 0.0 1030960
17:00−6ne7725100 0.0 10301024
20:00−7ne5729100 0.0 1031902
13 march, sat
sat1323:00−7ene5734100 0.0 1033735
02:00−8ene4644100 0.0 1033559
05:00−8ene465397 0.0 1033409
08:00−9ene475890 0.0 1034375
11:00−6ene564373 0.0 1035462
14:00−2ene45320 0.0 10351032
17:00−1ene45330 0.0 10341278
20:00−4ese34500 0.0 103399